Regional Weather Roundup
Issued by NWS

Home | Current Version | Previous Version | Text Only | Print | Product List | Glossary Off
Versions: 1 2 3 4 5 6 7 8 9 10 11 12 13 14 15 16 17 18 19 20 21 22 23 24 25 26 27 28 29 30 31 32 33 34 35 36 37 38 39 40 41 42 43 44 45 46 47 48 49 50

000
ASUS43 KLMK 040702
RWRKY
KENTUCKY REGIONAL WEATHER ROUNDUP
NATIONAL WEATHER SERVICE LOUISVILLE KY
200 AM EST WED MAR 04 2015

NOTE "FAIR" INDICATES FEW OR NO CLOUDS BELOW 12,000 FEET
WITH NO SIGNIFICANT WEATHER AND/OR OBSTRUCTIONS TO VISIBILITY.

KYZ001>023-026-027-061>063-070>075-040800-
WESTERN AND SOUTH CENTRAL KENTUCKY

CITY           SKY/WX    TMP DP  RH WIND       PRES   REMARKS
PADUCAH        LGT RAIN  46  44  93 N6        29.90R FOG
HENDERSON      CLOUDY    43  39  87 CALM      29.93R
OWENSBORO      HVY RAIN  44  43  97 N5        29.92R FOG
HOPKINSVILLE   LGT RAIN  51  50  96 N5        29.86S
BOWLING GREEN  LGT RAIN  52  48  86 N8        29.87F
GLASGOW        NOT AVBL
$$

KYZ024-025-028>034-038-045-046-053-040800-
NORTH CENTRAL KENTUCKY

CITY           SKY/WX    TMP DP  RH WIND       PRES   REMARKS
LOUISVILLE/SDF RAIN      45  42  89 CALM      29.90R FOG
LOUISVILLE/LOU RAIN      44  42  93 CALM      29.89F FOG
FORT KNOX      RAIN      43  43 100 NW2       29.87S FOG
$$

KYZ035>037-039>044-047>052-055>060-089>105-040800-
NORTHEAST KENTUCKY

CITY           SKY/WX    TMP DP  RH WIND       PRES   REMARKS
LEXINGTON      LGT RAIN  44  43  96 N10       29.90R FOG
COVINGTON      LGT RAIN  38  38 100 CALM      29.87R FOG
FRANKFORT      LGT RAIN  44  42  93 CALM      29.89R FOG
$$

KYZ054-064>069-076>088-106>120-040800-
SOUTHEAST KENTUCKY

CITY           SKY/WX    TMP DP  RH WIND       PRES   REMARKS
JACKSON        LGT RAIN  57  56  96 W7        29.86R
LONDON         RAIN      61  55  81 SW12G18   29.86S
SOMERSET       NOT AVBL
MIDDLESBORO    NOT AVBL
MONTICELLO     CLOUDY    62  61  97 S15       29.88S
$$



USA.gov is the U.S. government's official web portal to all federal, state and local government web resources and services.